Weather in Shelek

Kazakhstan     43°35′51″N   78°15′02″E
temp.,
°C
wind,
m/s
gust,
m/s
humid.,
%
clouds,
%
prec.,
mm/h
press.,
hPa
HPBL,
m
7 may, fri
fri700:00+17w7118083 0.8 1015660
03:00+15w6992100 0.5 1016486
06:00+15w498561 0.8 1016449
09:00+17wnw586593 0.1 1017788
12:00+20wnw675681 0.1 10171277
15:00+21wnw665599 0.8 10161417
18:00+17sw4663100 3.8 1018287
21:00+16wsw336424 0.2 101838
8 may, sat
sat800:00+16sw33595 0.2 101735
03:00+15sw336040 0.0 101723
06:00+16sw335868 0.0 101731
09:00+20nw224719 0.0 1017667
12:00+22nw33419 0.0 10161546
15:00+24wnw553710 0.2 10141632
18:00+23w563920 0.2 10151502
21:00+19sw465352 0.0 101685
9 may, sun
sun900:00+18ssw3349100 0.0 101522
03:00+17ssw3348100 0.0 101522
06:00+17ssw3350100 0.0 101429
09:00+23ene23360 0.0 1012998
12:00+25nne433218 0.0 10111733
15:00+26n32307 0.0 10101716
18:00+24w443592 0.6 1011840
21:00+20ssw444884 0.1 101346
10 may, mon
mon1000:00+16w71177100 0.1 1015475
03:00+16sw3471100 0.0 101495
06:00+15wsw357098 0.0 1013125
09:00+20wnw44563 0.0 1012654
12:00+22wnw554934 0.0 10101211
15:00+19sw456092 1.6 1010452
18:00+22w685145 1.8 10091265
21:00+16w7883100 2.8 1012383
11 may, tue
tue1100:00+18ssw2262100 5.6 101336
03:00+13s5668100 8.1 1014171
06:00+14s3465100 8.9 101479
09:00+15w3659100 0.1 1016881
12:00+18nw4644100 0.2 10161507
15:00+20nw48402 0.1 10152324
18:00+12wsw8108892 2.3 1018411
21:00+14sw225934 0.6 101823